Regional Weather Roundup
Issued by NWS

Home | Current Version | Previous Version | Graphics & Text | Print | Product List | Glossary Off
Versions: 1 2 3 4 5 6 7 8 9 10 11 12 13 14 15 16 17 18 19 20 21 22 23 24 25 26 27 28 29 30 31 32 33 34 35 36 37 38 39 40 41 42 43 44 45 46 47 48 49 50

000
ASUS43 KMKX 260521
RWRWI

WISCONSIN REGIONAL WEATHER ROUNDUP
NATIONAL WEATHER SERVICE MILWAUKEE/SULLIVAN WI
1200 AM CDT MON JUN 26 2017

NOTE: "FAIR" INDICATES FEW OR NO CLOUDS BELOW 12,000 FEET WITH NO
SIGNIFICANT WEATHER AND/OR OBSTRUCTIONS TO VISIBILITY.

WIZ001-002-006>008-014>016-023>028-260600-
NORTHWEST WISCONSIN

CITY           SKY/WX    TMP DP  RH WIND       PRES   REMARKS
SUPERIOR ARPT  NOT AVBL
ASHLAND        CLOUDY    50  46  86 NW7       30.08S
HAYWARD        CLEAR     48  44  86 CALM      30.09F
SIREN          CLEAR     44  42  93 CALM      30.12F
CUMBERLAND     PTCLDY    46  43  87 NW6       30.11S
RICE LAKE      CLEAR     49  47  92 W3        30.12S
CHETEK         PTCLDY    49  47  92 CALM      30.10F
LADYSMITH      CLEAR     50  47  90 W8        30.10F
EAU CLAIRE     CLEAR     46  46 100 CALM      30.10S
MENOMONIE      CLEAR     51  48  87 W5        30.11S
NEW RICHMOND   CLEAR     49  43  78 W5        30.13S
OSCEOLA        CLEAR     49  45  85 CALM      30.15S
$$

WIZ003>005-009-010-017-018-260600-
NORTH CENTRAL WISCONSIN

CITY           SKY/WX    TMP DP  RH WIND       PRES   REMARKS
MANITOWISH WTR MOCLDY    47  47 100 W7        30.03F
ARBOR VITAE    CLOUDY    52  49  90 NW9       30.03S
WOODRUFF       CLOUDY    52  49  90 NW9       30.03S
RHINELANDER    MOCLDY    45  45 100 W5        30.04F
EAGLE RIVER    CLOUDY    47  47  99 CALM      30.02F
LAND O LAKES   CLOUDY    49  47  95 W6        30.02F
PHILLIPS       MOCLDY    46  46  98 CALM      30.06S
TOMAHAWK       NOT AVBL
MEDFORD        CLEAR     48  46  95 W6        30.07S
MERRILL        CLOUDY    49  49 100 W3        30.06S
$$

WIZ029-030-035-036-043>047-260600-
CENTRAL WISCONSIN

CITY           SKY/WX    TMP DP  RH WIND       PRES   REMARKS
WAUSAU         PTCLDY    50  48  93 W7        30.04F
MOSINEE        CLEAR     46  46 100 W5        30.07S
MARSHFIELD     CLEAR     49  45  86 W5        30.07F
STEVENS POINT  CLEAR     50  48  95 W5        30.07S
WAUPACA        PTCLDY    54  52  94 W6        30.06S
WAUTOMA        CLEAR     51  48  89 SW5       30.08F
WISC RAPIDS    CLEAR     50  47  89 W5        30.09S
CAMP DOUGLAS   CLEAR     50  48  92 W7        30.10S
$$

WIZ011>013-019>022-031-037>040-048>050-260600-
NORTHEAST WISCONSIN

CITY           SKY/WX    TMP DP  RH WIND       PRES   REMARKS
ANTIGO         CLEAR     47  45  93 NW8       30.05S
SHAWANO        CLEAR     53  49  86 W5        30.04S
OCONTO         CLEAR     52  49  89 W8        30.01S
STURGEON BAY     N/A     56  51  84 NW14        N/A
GREEN BAY      CLEAR     54  51  90 W8        30.03F
MANITOWOC      CLEAR     57  51  80 W10       30.03S
APPLETON       MOCLDY    52  52 100 W5        30.04S
CLINTONVILLE   PTCLDY    52  46  82 W6        30.04F
OSHKOSH        CLEAR     54  51  90 W3        30.05F
$$

WIZ032>034-041-042-053>061-260600-
SOUTHWEST WISCONSIN

CITY           SKY/WX    TMP DP  RH WIND       PRES   REMARKS
LA CROSSE      CLEAR     59  50  72 CALM      30.11R
SPARTA         CLEAR     48  47  99 CALM      30.12S
VIROQUA        CLEAR     53  47  78 W3        30.11F
BOSCOBEL       CLEAR     52  49  89 SW5       30.12S
PRAIRIE DU CHI CLEAR     51  47  84 CALM      30.13R
PLATTEVILLE    CLEAR     54  49  86 W3        30.13F
$$

WIZ056-057-062-063-064-067-068-260600-
SOUTH CENTRAL WISCONSIN

CITY           SKY/WX    TMP DP  RH WIND       PRES   REMARKS
REEDSBURG      MOCLDY    52  52 100 CALM      30.10F
BARABOO/DELLS  CLOUDY    53  51  92 CALM      30.10F
LONE ROCK      PTCLDY    50  47  89 N9        30.11S
MINERAL POINT  CLEAR     54  50  87 W5        30.12S
MADISON        CLOUDY    54  52  93 NW3       30.10S
MIDDLETON      PTCLDY    53  53 100 N6        30.11S
WATERTOWN      NOT AVBL
MONROE         CLEAR     54  46  76 W8        30.11F
JANESVILLE     CLEAR     55  52  88 CALM      30.10F
$$

WIZ051-052-058>065-066-070>072-260600-
SOUTHEAST WISCONSIN

CITY           SKY/WX    TMP DP  RH WIND       PRES   REMARKS
MILWAUKEE      MOCLDY    58  53  84 W7        30.08S
WAUKESHA       CLOUDY    54  50  87 W8        30.10S
MILWAUKEE/TIMM PTCLDY    54  48  82 W8        30.09R
RACINE         PTCLDY    56  51  84 W6        30.10S
KENOSHA        PTCLDY    56  50  80 W8        30.10S
FOND DU LAC    CLEAR     55  50  83 W3        30.07S
SHEBOYGAN      CLEAR     55  54  96 W7        30.04F
WEST BEND      CLEAR     54  52  94 W7        30.07S
JUNEAU         PTCLDY    51  50  95 CALM      30.09S
$$

LSZ147-162-260600-
LAKE SUPERIOR

STATION/POSITION TIME  TEMP    WIND        PRES    WAVE
                       AIR SEA DIR/SP/G            HT/PER
                 (UTC) (F)     (DEG/KT/KT) (MB)    (FT/S)
W MID LAKE BUOY  0450   42 39  330/ 12/ 16 1016.9F   1
DEVILS ISLAND    0500   49     320/ 13/ 15 1018.7R
SAXON HARBOR     0440   53     340/ 15/ 17 1017.6S
$$

LMZ867-665-643>646-260600-
LAKE MICHIGAN

STATION/POSITION TIME  TEMP    WIND        PRES    WAVE
                       AIR SEA DIR/SP/G            HT/PER
                 (UTC) (F)     (DEG/KT/KT) (MB)    (FT/S)
CHAMBERS ISLAND  0440   56     270/  4/  7 1014.9F
S GREEN BAY BUOY 0500   57     280/ 16/ 19 1015.7
N MID LAKE BUOY  0450   57 57   10/  4/  6 1015.5S   2/ 3
NORTHPORT PIER   0440   59     320/  8/ 11 1015.2S
KEWAUNEE LAKESHO 0454   56     290/  9/ 12 1015.6F
SHEBOYGAN LAKESH 0500   58     270/ 10/ 13 1017.0F
PORT WASHINGTON  0430   58     260/  6/ 11 1018.6S
ATWATER BUOY     0409   59 56  270/ 14/ 17 1018.1F
MILWAUKEE LAKESH 0500   58     280/  8/ 11   N/A
S MID LAKE BUOY  0450   60 61  310/ 17/ 21 1017.9R   3/ 5
KENOSHA   LAKESH 0500   59     280/ 10/ 14 1019.0
$$

TC  - TEMPERATURE IN CELSIUS
VSB - VISIBILITY IN STATUTE MILES
WCI - WIND CHILL INDEX
HX  - HEAT INDEX





USA.gov is the U.S. government's official web portal to all federal, state and local government web resources and services.